Flag for Germany Weather past 2 weeks in Delbrück, North Rhine-Westphalia, Germany

Now
50 °F

Scattered clouds.


Feels Like: 46 °F
Forecast: 47 / 61 °F
Wind: 9 mph from South

Location: Paderborn / Lippstadt

Current Time: Oct 26, 2014 at 8:45:26 AM

Latest Report: Oct 26, 2014 at 8:20 AM


Visibility: N/A

Pressure: 30.27 "Hg

Humidity: 71%

Dew point: 41 °F

Location of DelbrückLocation

Historic Weather in Delbrück — Graph

°F

Delbrück temperature yesterday

Maximum temperature yesterday: 55 °F (at 2:50 PM)
Minimum temperature yesterday: 50 °F (at 7:20 AM)
Average temperature yesterday: 53 °F

Past Weeks' High & Low Weather Summary

 TemperatureHumidityPressure
High72 °F (Oct 19, 1:20 PM)100% (Oct 11, 8:20 AM)30.27 "Hg (Oct 11, 8:20 AM)
Low43 °F (Oct 22, 3:50 AM)52% (Oct 14, 2:20 PM)29.47 "Hg (Oct 21, 5:20 PM)
Average55 °F80%29.93 "Hg
* Reported Oct 11 8:20 AM — Oct 26 7:20 AM, Delbrück, Weather by CustomWeather, © 2014

Note: Actual official high and low records may vary slightly from our data, if they occured in-between our weather recording intervals... More about our weather records

Advertising

Delbrück weather history for previous 24 hours

 ConditionsComfort  
Time TempWeatherWind HumidityBarometerVisibility
7:20 AM
Oct 26
50 °FScattered clouds.8 mph71%30.27 "HgN/A
6:50 AM50 °FPassing clouds.7 mph71%30.27 "HgN/A
6:20 AM48 °FPassing clouds.9 mph76%30.24 "HgN/A
5:50 AM46 °FPassing clouds.9 mph82%30.24 "HgN/A
5:20 AM46 °FClear.8 mph87%30.24 "Hg10 mi
4:50 AM46 °FClear.8 mph82%30.24 "Hg10 mi
4:20 AM46 °FClear.8 mph87%30.24 "Hg10 mi
1:20 AM50 °FPartly cloudy.6 mph100%30.24 "HgN/A
12:50 AM50 °FPassing clouds.9 mph100%30.21 "Hg5 mi
12:20 AM52 °FPassing clouds.8 mph100%30.21 "HgN/A
11:50 PM
Oct 25
52 °FPassing clouds.7 mph100%30.18 "HgN/A
11:20 PM52 °FPartly cloudy.9 mph100%30.18 "HgN/A
10:50 PM54 °FPassing clouds.8 mph88%30.18 "HgN/A
10:20 PM54 °FPassing clouds.7 mph88%30.18 "HgN/A
9:50 PM54 °FPassing clouds.8 mph88%30.18 "HgN/A
9:20 PM54 °FPassing clouds.7 mph88%30.15 "HgN/A
8:50 PM54 °FPassing clouds.7 mph88%30.15 "HgN/A
8:20 PM54 °FPassing clouds.6 mph88%30.15 "HgN/A
7:50 PM54 °FPassing clouds.5 mph88%30.15 "HgN/A
7:20 PM54 °FPartly cloudy.3 mph88%30.15 "HgN/A
6:50 PM54 °FBroken clouds.5 mph88%30.15 "HgN/A
6:20 PM54 °FPartly sunny.3 mph94%30.12 "HgN/A
5:58 PM54 °FPartly sunny.3 mph94%30.12 "HgN/A
5:50 PM54 °FPartly sunny.3 mph94%30.12 "HgN/A
5:20 PM54 °FPartly sunny.3 mph94%30.12 "HgN/A
4:50 PM55 °FPartly sunny.5 mph82%30.12 "HgN/A
4:20 PM55 °FPartly sunny.6 mph82%30.12 "HgN/A
3:50 PM55 °FPartly sunny.9 mph82%30.12 "HgN/A
3:20 PM55 °FPartly sunny.9 mph82%30.09 "HgN/A
2:50 PM55 °FPartly sunny.8 mph82%30.09 "HgN/A
2:20 PM54 °FBroken clouds.9 mph88%30.09 "HgN/A
1:50 PM54 °FBroken clouds.8 mph88%30.09 "HgN/A
1:20 PM54 °FPartly sunny.7 mph88%30.09 "HgN/A
12:50 PM54 °FScattered showers. Partly sunny.7 mph82%30.09 "HgN/A
12:20 PM54 °FPartly sunny.7 mph82%30.09 "HgN/A
11:50 AM54 °FPartly sunny.7 mph82%30.09 "HgN/A
11:20 AM52 °FPartly sunny.7 mph82%30.09 "HgN/A
10:50 AM52 °FPartly sunny.6 mph82%30.09 "HgN/A
10:20 AM52 °FPartly sunny.5 mph77%30.09 "HgN/A
9:50 AM52 °FPartly sunny.7 mph77%30.07 "HgN/A
9:20 AM52 °FPartly sunny.7 mph77%30.07 "HgN/A
8:50 AM52 °FPassing clouds.7 mph77%30.07 "HgN/A
8:20 AM50 °FPassing clouds.8 mph76%30.07 "HgN/A
Weather by CustomWeather, © 2014

See weather overviewHow to use our weather pages